Location: Berduj
(43.0019°N, 22.3781°E)
Time: 02:33:20
(UTC+00:00)

Abrixas rocket - Pass Details

Date: 19 October 2019
Orbit: 359 x 368 km, 48.4° (Epoch: 15 November)

Event Time Altitude Azimuth Distance (km) Brightness Sun altitude
Rises 16:52:57 0° 248° (WSW) 2,214 7.3 -13.7°
Reaches altitude 10° 16:55:00 10° 251° (WSW) 1,367 6.1 -14.0°
Maximum altitude 16:58:04 72° 336° (NNW) 392 2.1 -14.6°
Enters shadow 16:59:22 31° 55° (NE) 685 2.9 -14.8°
